• In Czech Republic
  • List of Countries
  • For 7 days
  • Water Temperature
  • Satellite Maps
  • Weather Map
  • Weather Widgets
  • user-avatar
    Login

    Hourly Weather Kadaryszki

    Today, 23 April, Monday

    Time Temperature Precipitation Wind Pressure Humidity
    00:00 +5°C° 0 mm 2 mps 746 mmHg 77%
    01:00 +5°C° 0 mm 2 mps 746 mmHg 78%
    02:00 +5°C° 0 mm 1 mps 746 mmHg 80%
    03:00 +5°C° 0 mm 1 mps 746 mmHg 81%
    04:00 +5°C° 0 mm 1 mps 745 mmHg 81%
    05:00 +4°C° 0 mm 1 mps 745 mmHg 82%
    06:00 +6°C° 0 mm 1 mps 745 mmHg 76%
    07:00 +6°C° 0 mm 2 mps 745 mmHg 70%
    08:00 +8°C° 0 mm 2 mps 746 mmHg 64%
    09:00 +10°C° 0 mm 2 mps 745 mmHg 58%
    10:00 +13°C° 0 mm 2 mps 745 mmHg 52%
    11:00 +14°C° 0 mm 2 mps 745 mmHg 46%
    12:00 +14°C° 0 mm 3 mps 745 mmHg 43%
    13:00 +16°C° 0 mm 3 mps 744 mmHg 40%
    14:00 +18°C° 0 mm 3 mps 744 mmHg 36%
    15:00 +18°C° 0 mm 3 mps 743 mmHg 38%
    16:00 +18°C° 0 mm 3 mps 743 mmHg 40%
    17:00 +18°C° 0 mm 3 mps 742 mmHg 42%
    18:00 +17°C° 0.2 mm 3 mps 742 mmHg 50%
    19:00 +15°C° 0.2 mm 2 mps 741 mmHg 59%
    20:00 +13°C° 0.2 mm 2 mps 741 mmHg 67%
    21:00 +13°C° 0.9 mm 2 mps 741 mmHg 74%
    22:00 +12°C° 0.9 mm 2 mps 741 mmHg 80%
    23:00 +11°C° 0.9 mm 3 mps 741 mmHg 86%

    Tomorrow, 24 April, Tuesday

    Time Temperature Precipitation Wind Pressure Humidity
    00:00 +10°C° 0.2 mm 3 mps 741 mmHg 89%
    01:00 +10°C° 0.2 mm 3 mps 741 mmHg 91%
    02:00 +10°C° 0.2 mm 3 mps 741 mmHg 93%
    03:00 +8°C° 0 mm 4 mps 741 mmHg 93%
    04:00 +7°C° 0 mm 4 mps 741 mmHg 93%
    05:00 +6°C° 0 mm 4 mps 741 mmHg 94%
    06:00 +6°C° 0 mm 4 mps 741 mmHg 90%
    07:00 +7°C° 0 mm 5 mps 741 mmHg 86%
    08:00 +7°C° 0 mm 5 mps 742 mmHg 82%
    09:00 +8°C° 0 mm 5 mps 742 mmHg 77%
    10:00 +9°C° 0 mm 6 mps 742 mmHg 72%
    11:00 +10°C° 0 mm 6 mps 742 mmHg 67%
    12:00 +11°C° 0 mm 6 mps 742 mmHg 65%
    13:00 +12°C° 0 mm 5 mps 742 mmHg 63%
    14:00 +12°C° 0 mm 5 mps 742 mmHg 61%
    15:00 +12°C° 0 mm 5 mps 742 mmHg 61%
    16:00 +12°C° 0 mm 4 mps 742 mmHg 61%
    17:00 +12°C° 0 mm 4 mps 742 mmHg 61%
    18:00 +12°C° 0 mm 3 mps 742 mmHg 65%
    19:00 +11°C° 0 mm 3 mps 741 mmHg 70%
    20:00 +10°C° 0 mm 2 mps 741 mmHg 75%
    21:00 +10°C° 0.1 mm 3 mps 741 mmHg 79%
    22:00 +8°C° 0.1 mm 4 mps 741 mmHg 84%
    23:00 +8°C° 0.1 mm 4 mps 741 mmHg 88%

    Day after tomorrow, 25 April, Wednesday

    Time Temperature Precipitation Wind Pressure Humidity
    00:00 +7°C° 0.1 mm 5 mps 741 mmHg 88%
    01:00 +7°C° 0.1 mm 5 mps 741 mmHg 87%
    02:00 +7°C° 0.1 mm 5 mps 741 mmHg 87%
    03:00 +6°C° 0 mm 5 mps 741 mmHg 86%
    04:00 +6°C° 0 mm 5 mps 741 mmHg 86%
    05:00 +5°C° 0 mm 4 mps 741 mmHg 85%
    06:00 +6°C° 0 mm 5 mps 741 mmHg 80%
    07:00 +7°C° 0 mm 5 mps 741 mmHg 76%
    08:00 +8°C° 0 mm 6 mps 741 mmHg 71%
    09:00 +9°C° 0 mm 6 mps 741 mmHg 66%
    10:00 +10°C° 0 mm 6 mps 741 mmHg 61%
    11:00 +11°C° 0 mm 6 mps 741 mmHg 57%
    12:00 +10°C° 0.4 mm 5 mps 741 mmHg 63%
    13:00 +11°C° 0.4 mm 4 mps 740 mmHg 69%
    14:00 +10°C° 0.4 mm 3 mps 740 mmHg 75%
    15:00 +10°C° 0.6 mm 3 mps 739 mmHg 79%
    16:00 +10°C° 0.6 mm 3 mps 739 mmHg 83%
    17:00 +9°C° 0.6 mm 2 mps 738 mmHg 87%
    18:00 +9°C° 0.6 mm 2 mps 738 mmHg 89%
    19:00 +9°C° 0.6 mm 2 mps 737 mmHg 92%
    20:00 +9°C° 0.6 mm 2 mps 737 mmHg 95%
    21:00 +9°C° 0.2 mm 2 mps 737 mmHg 95%
    22:00 +9°C° 0.2 mm 3 mps 737 mmHg 95%
    23:00 +9°C° 0.2 mm 3 mps 737 mmHg 95%

    26 April, Thursday

    Time Temperature Precipitation Wind Pressure Humidity
    00:00 +9°C° 0.1 mm 3 mps 737 mmHg 95%
    01:00 +9°C° 0.1 mm 3 mps 737 mmHg 95%
    02:00 +8°C° 0.1 mm 3 mps 737 mmHg 95%
    03:00 +8°C° 0 mm 3 mps 738 mmHg 95%
    04:00 +7°C° 0 mm 3 mps 738 mmHg 95%
    05:00 +7°C° 0 mm 3 mps 738 mmHg 94%
    06:00 +7°C° 0 mm 3 mps 738 mmHg 90%
    07:00 +8°C° 0 mm 3 mps 739 mmHg 87%
    08:00 +7°C° 0 mm 4 mps 739 mmHg 83%
    09:00 +8°C° 0.1 mm 4 mps 740 mmHg 77%
    10:00 +9°C° 0.1 mm 5 mps 740 mmHg 71%
    11:00 +12°C° 0.1 mm 5 mps 740 mmHg 66%
    12:00 +12°C° 0.3 mm 5 mps 740 mmHg 64%
    13:00 +11°C° 0.3 mm 6 mps 740 mmHg 62%
    14:00 +13°C° 0.3 mm 6 mps 740 mmHg 60%
    15:00 +13°C° 0.1 mm 6 mps 741 mmHg 61%
    16:00 +12°C° 0.1 mm 5 mps 741 mmHg 62%
    17:00 +12°C° 0.1 mm 5 mps 741 mmHg 63%
    18:00 +11°C° 0.2 mm 4 mps 741 mmHg 70%
    19:00 +9°C° 0.2 mm 3 mps 741 mmHg 77%
    20:00 +8°C° 0.2 mm 2 mps 742 mmHg 84%
    21:00 +8°C° 0.2 mm 2 mps 742 mmHg 86%
    22:00 +7°C° 0.2 mm 2 mps 742 mmHg 89%
    23:00 +7°C° 0.2 mm 2 mps 742 mmHg 91%

    27 April, Friday

    Time Temperature Precipitation Wind Pressure Humidity
    00:00 +6°C° 0.1 mm 2 mps 742 mmHg 92%
    01:00 +6°C° 0.1 mm 2 mps 743 mmHg 93%
    02:00 +5°C° 0.1 mm 3 mps 743 mmHg 93%
    03:00 +4°C° 0 mm 3 mps 743 mmHg 94%
    04:00 +4°C° 0 mm 3 mps 743 mmHg 94%
    05:00 +3°C° 0 mm 4 mps 743 mmHg 95%
    06:00 +4°C° 0 mm 4 mps 744 mmHg 91%
    07:00 +5°C° 0 mm 5 mps 744 mmHg 88%
    08:00 +6°C° 0 mm 5 mps 744 mmHg 84%
    09:00 +7°C° 0.1 mm 5 mps 745 mmHg 80%
    10:00 +7°C° 0.1 mm 5 mps 745 mmHg 76%
    11:00 +8°C° 0.1 mm 5 mps 745 mmHg 72%
    12:00 +9°C° 0.2 mm 5 mps 746 mmHg 67%
    13:00 +10°C° 0.2 mm 6 mps 746 mmHg 61%
    14:00 +11°C° 0.2 mm 6 mps 746 mmHg 56%
    15:00 +12°C° 0 mm 5 mps 746 mmHg 56%
    16:00 +10°C° 0 mm 5 mps 746 mmHg 56%
    17:00 +10°C° 0 mm 5 mps 746 mmHg 55%
    18:00 +10°C° 0 mm 4 mps 747 mmHg 62%
    19:00 +8°C° 0 mm 2 mps 747 mmHg 69%
    20:00 +8°C° 0 mm 1 mps 747 mmHg 75%
    21:00 +7°C° 0 mm 1 mps 747 mmHg 77%
    22:00 +7°C° 0 mm 1 mps 748 mmHg 78%
    23:00 +6°C° 0 mm 1 mps 748 mmHg 79%

    28 April, Saturday

    Time Temperature Precipitation Wind Pressure Humidity
    00:00 +6°C° 0 mm 1 mps 748 mmHg 80%
    01:00 +5°C° 0 mm 2 mps 748 mmHg 81%
    02:00 +5°C° 0 mm 2 mps 748 mmHg 82%
    03:00 +4°C° 0 mm 2 mps 748 mmHg 83%
    04:00 +4°C° 0 mm 2 mps 748 mmHg 84%
    05:00 +4°C° 0 mm 2 mps 749 mmHg 85%
    06:00 +6°C° 0 mm 2 mps 749 mmHg 80%
    07:00 +8°C° 0 mm 2 mps 749 mmHg 75%
    08:00 +9°C° 0 mm 3 mps 749 mmHg 69%
    09:00 +11°C° 0 mm 3 mps 749 mmHg 63%
    10:00 +13°C° 0 mm 3 mps 749 mmHg 57%
    11:00 +14°C° 0 mm 4 mps 749 mmHg 51%
    12:00 +16°C° 0 mm 3 mps 748 mmHg 49%
    13:00 +17°C° 0 mm 3 mps 748 mmHg 47%
    14:00 +18°C° 0 mm 3 mps 748 mmHg 45%
    15:00 +17°C° 0 mm 3 mps 747 mmHg 50%
    16:00 +17°C° 0 mm 2 mps 747 mmHg 54%
    17:00 +16°C° 0 mm 2 mps 746 mmHg 58%
    18:00 +15°C° 0 mm 2 mps 746 mmHg 62%
    19:00 +14°C° 0 mm 2 mps 746 mmHg 65%
    20:00 +12°C° 0 mm 3 mps 746 mmHg 69%
    21:00 +12°C° 0 mm 3 mps 746 mmHg 71%
    22:00 +11°C° 0 mm 3 mps 745 mmHg 73%
    23:00 +11°C° 0 mm 3 mps 745 mmHg 75%
    Show more